Location: Marengo
(51.4813°N, 109.7825°W)
Time: 01:53:49
(UTC+00:00)

BlueWalker 3 - Pass Details

Date: 08 December 2022
Orbit: 499 x 517 km, 53.2° (Epoch: 26 January)

Event Time Altitude Azimuth Distance (km) Brightness Sun altitude
Rises 01:31:06 0° 289° (WNW) 2,633 6.6 -20.6°
Reaches altitude 10° 01:33:20 10° 285° (WNW) 1,740 5.6 -21.0°
Maximum altitude 01:37:10 51° 209° (SSW) 645 2.6 -21.6°
Enters shadow 01:38:03 41° 165° (SSE) 743 2.7 -21.7°
